Simultaneous Nadir Overpasses (SNOs) Predictions

Prediction of SNOs between GOES-16 and AQUA Satellite Orbit:

Table of predicted SNOs for the next 14.0 days since TLE Epoch: 4/20/2017
Index Date Time (GOES-16) GOES-16 Lat,Lon AQUA Lat,Lon Distance(km) Time Diff (sec)
1 04/22/2017 19:25:03 -0.00, -89.48 0.52, -87.11 270.27 80
2 04/23/2017 07:46:19 0.00, -89.49 0.56, -92.27 315.71 80
3 04/25/2017 07:31:27 0.00, -89.48 -0.06, -89.31 19.73 80
4 04/27/2017 07:19:14 -0.00, -89.47 -0.63, -86.34 354.84 80
5 04/27/2017 19:40:38 0.00, -89.46 -0.44, -91.54 236.61 80
6 04/29/2017 19:31:06 0.00, -89.45 0.20, -88.58 98.92 80
7 04/30/2017 07:52:21 0.00, -89.46 0.89, -93.74 486.26 80
8 05/01/2017 19:18:53 -0.01, -89.44 0.79, -85.61 434.86 80
9 05/02/2017 07:40:08 0.01, -89.46 0.30, -90.78 150.22 80
10 05/04/2017 07:25:16 0.02, -89.46 -0.36, -87.82 186.47 80
11 05/04/2017 19:46:39 -0.02, -89.44 -0.77, -93.01 405.20 80




NCC Satellite Simultaneous Nadir Overpasses (SNOs) Prediction Service
